Kentucky Observed Data For Previous 48 Hours

Caption
Day and Hour Reservoir Elevation (behind dam)* Tailwater Elevation (below dam)* Average Hourly Discharge*
7/14/2018 1 AM CDT 358.76 300.04 26,148
7/14/2018 2 AM CDT 358.76 299.76 25,921
7/14/2018 3 AM CDT 358.79 300.03 25,917
7/14/2018 4 AM CDT 358.78 299.74 25,911
7/14/2018 5 AM CDT 358.79 299.81 25,906
7/14/2018 6 AM CDT 358.78 299.73 25,875
7/14/2018 7 AM CDT 358.79 299.69 25,875
7/14/2018 8 AM CDT 358.77 299.57 25,896
7/14/2018 9 AM CDT 358.76 299.56 25,835
7/14/2018 10 AM CDT 358.73 299.51 25,862
7/14/2018 11 AM CDT 358.60 299.46 26,334
7/14/2018 12 PM CDT 358.68 299.45 26,716
7/14/2018 1 PM CDT 358.67 299.45 25,707
7/14/2018 2 PM CDT 358.66 299.56 26,532
7/14/2018 3 PM CDT 358.67 299.54 25,861
7/14/2018 4 PM CDT 358.67 299.53 25,853
7/14/2018 5 PM CDT 358.61 299.63 25,815
7/14/2018 6 PM CDT 358.63 299.82 25,869
7/14/2018 7 PM CDT 358.56 299.59 25,931
7/14/2018 8 PM CDT 358.54 299.74 26,071
7/14/2018 9 PM CDT 358.62 299.71 26,105
7/14/2018 10 PM CDT 358.74 299.57 25,966
7/14/2018 11 PM CDT 358.76 299.69 25,826
7/15/2018 12 AM CDT 358.72 299.56 25,684
7/15/2018 1 AM CDT 358.70 299.63 26,022
7/15/2018 2 AM CDT 358.75 299.61 26,128
7/15/2018 3 AM CDT 358.69 299.59 26,180
7/15/2018 4 AM CDT 358.65 299.57 26,239
7/15/2018 5 AM CDT 358.66 299.54 26,118
7/15/2018 6 AM CDT 358.71 299.52 26,093
7/15/2018 7 AM CDT 358.74 299.42 26,011
7/15/2018 8 AM CDT 358.71 299.43 26,089
7/15/2018 9 AM CDT 358.71 299.46 26,109
7/15/2018 10 AM CDT 358.70 299.50 25,990
7/15/2018 11 AM CDT 358.66 299.34 25,919
7/15/2018 12 PM CDT 358.64 299.37 25,879
7/15/2018 1 PM CDT 358.60 299.19 25,913
7/15/2018 2 PM CDT 358.60 299.21 25,838
7/15/2018 3 PM CDT 358.67 299.11 25,644
7/15/2018 4 PM CDT 358.60 298.99 25,710
7/15/2018 5 PM CDT 358.68 298.97 25,708
7/15/2018 6 PM CDT 358.77 298.96 25,455
7/15/2018 7 PM CDT 358.74 298.96 25,416
7/15/2018 8 PM CDT 358.74 298.96 25,429
7/15/2018 9 PM CDT 358.72 298.96 25,422
7/15/2018 10 PM CDT 358.76 298.96 25,374
7/15/2018 11 PM CDT 358.81 298.96 25,362
7/16/2018 12 AM CDT 358.82 298.96 25,301

Elevations are in feet above sea level. Discharges are in cubic feet per second and are reported at the end of the hour.